User: anonymous   Login
Location: Moy Burn
(57.3833°N, 4.0667°W)
Time: 10:43:29
(UTC+00:00)
Language:

Cosmos 1378 - Orbit

View from above orbital plane
View from above orbital plane
View from above satellite
View from above satellite

Ground track
Ground track

The orbit data is extracted from the following two-line orbital elements,

1 13271U 82059A   20296.84169135 +.00001273 +00000-0 +52573-4 0  9993
2 13271 082.4656 064.9400 0006410 346.6486 013.4579 15.23104840095896
Epoch (UTC): 22 October 2020 20:12:02
Eccentricity: 0.0006410
inclination: 82.4656°
perigee height: 492 km
apogee height: 501 km
right ascension of ascending node: 64.9400°
argument of perigee: 346.6486°
revolutions per day: 15.23104840
mean anomaly at epoch: 13.4579°
orbit number at epoch: 9589

The dashed part of the orbit path shows where the satellite is in the earth's shadow,  

DLR